This is the latest recevied weather packets stored in our database for station/object AK4NG. If no packets are shown the sender has not sent any weather packets the latest 10 day(s).
| Time | Temp. | Humidity | Pressure | Rain* | Wind** | Luminosity | Snow |
|---|---|---|---|---|---|---|---|
| 1778099535 | 27.78° C | 70% | 1013.7 hPa | 0 mm | - | 186 W/m² | - |
| 1778099234 | 27.78° C | 70% | 1013.8 hPa | 0 mm | - | 240 W/m² | - |
| 1778098929 | 28.33° C | 67% | 1014.2 hPa | 0 mm | - | 204 W/m² | - |
| 1778098627 | 28.33° C | 66% | 1014 hPa | 0 mm | - | 431 W/m² | - |
| 1778098323 | 27.78° C | 68% | 1014.3 hPa | 0 mm | - | 426 W/m² | - |
| 1778098020 | 28.33° C | 66% | 1014.4 hPa | 0 mm | - | 314 W/m² | - |
| 1778097717 | 28.33° C | 65% | 1014.5 hPa | 0 mm | - | 242 W/m² | - |
| 1778097413 | 28.33° C | 69% | 1014.4 hPa | 0 mm | - | 607 W/m² | - |
| 1778097109 | 27.78° C | 69% | 1014.8 hPa | 0 mm | - | 299 W/m² | - |
| 1778096807 | 27.78° C | 67% | 1014.7 hPa | 0 mm | - | 236 W/m² | - |
| 1778096503 | 28.33° C | 66% | 1015 hPa | 0 mm | - | 449 W/m² | - |
| 1778096201 | 28.33° C | 67% | 1014.8 hPa | 0 mm | - | 739 W/m² | - |
| 1778095898 | 27.78° C | 67% | 1015 hPa | 0 mm | - | 716 W/m² | - |
| 1778095595 | 27.78° C | 69% | 1015.2 hPa | 0 mm | - | 553 W/m² | - |
| 1778095290 | 27.22° C | 72% | 1015.1 hPa | 0 mm | - | 777 W/m² | - |
| 1778094988 | 27.22° C | 71% | 1015.3 hPa | 0 mm | - | 558 W/m² | - |
| 1778094683 | 26.67° C | 71% | 1015.3 hPa | 0 mm | - | 476 W/m² | - |
| 1778094381 | 26.67° C | 72% | 1015.6 hPa | 0 mm | - | 623 W/m² | - |
| 1778094077 | 27.22° C | 71% | 1015.6 hPa | 0 mm | - | 506 W/m² | - |
| 1778093775 | 26.67° C | 72% | 1015.7 hPa | 0 mm | - | 503 W/m² | - |
| 1778093465 | 26.11° C | 75% | 1015.9 hPa | 0 mm | - | 431 W/m² | - |
| 1778093163 | 25.56° C | 77% | 1016 hPa | 0 mm | - | 356 W/m² | - |
| 1778092860 | 25.56° C | 77% | 1016.1 hPa | 0 mm | - | 377 W/m² | - |
| 1778092555 | 25° C | 77% | 1016.3 hPa | 0 mm | - | 269 W/m² | - |
| 1778092252 | 25° C | 79% | 1016.1 hPa | 0 mm | - | 211 W/m² | - |
* Rain latest hour (hover to see other rain measurements)
** Current wind speed in m/s (hover to see current wind gust speed)